FW9989 Weather Reports


Display with metric or nautical units.
time (UTC)temp
F
wind
direction
speed
MPH
gust
MPH
rain 1hr
in
rain 24hr
in
rain mn
in
humidity
%
barometer
mb
20260506134145 66 193 5.0 8.0 0.00 0.00 0.00 79 1015.9
20260506133643 66 150 6.0 10.0 0.00 0.00 0.00 79 1015.9
20260506133140 66 213 6.0 9.0 0.00 0.00 0.00 80 1015.9
20260506132637 66 225 7.0 14.0 0.00 0.00 0.00 80 1015.9
20260506132133 66 211 6.0 11.0 0.00 0.00 0.00 80 1015.6
20260506131631 66 190 5.0 10.0 0.00 0.00 0.00 81 1015.6
20260506131127 66 213 9.0 10.0 0.00 0.00 0.00 80 1015.6
20260506130624 65 206 5.0 10.0 0.00 0.00 0.00 80 1015.6
20260506130122 65 185 7.0 14.0 0.00 0.00 0.00 80 1015.9
20260506125620 65 204 10.0 11.0 0.00 0.00 0.00 81 1015.6
20260506125117 65 212 8.0 10.0 0.00 0.00 0.00 81 1015.6
20260506124615 65 188 3.0 9.0 0.00 0.00 0.00 82 1015.6
20260506124113 64 211 3.0 10.0 0.00 0.00 0.00 82 1015.6
20260506123610 64 224 3.0 7.0 0.00 0.00 0.00 82 1015.6
20260506123109 64 227 8.0 13.0 0.00 0.00 0.00 82 1015.6
20260506122605 64 189 0.0 13.0 0.00 0.00 0.00 83 1015.2
20260506122103 64 217 3.0 7.0 0.00 0.00 0.00 83 1015.2
20260506121600 64 202 2.0 9.0 0.00 0.00 0.00 83 1015.2
20260506121056 64 209 0.0 8.0 0.00 0.00 0.00 84 1015.2
20260506120554 64 188 0.0 9.0 0.00 0.00 0.00 84 1015.2
20260506120051 64 209 0.0 3.0 0.00 0.00 0.00 84 1015.6
20260506115549 64 172 3.0 8.0 0.00 0.00 0.00 84 1015.6
20260506115048 64 213 3.0 8.0 0.00 0.00 0.00 84 1015.2
20260506114545 63 198 0.0 5.0 0.00 0.00 0.00 85 1015.6
20260506114043 63 216 3.0 6.0 0.00 0.00 0.00 85 1015.6
20260506113541 63 197 0.0 11.0 0.00 0.00 0.00 85 1015.2
20260506113038 63 121 2.0 5.0 0.00 0.00 0.00 86 1015.6
20260506112534 63 200 3.0 7.0 0.00 0.00 0.00 87 1015.6
20260506112031 62 191 2.0 3.0 0.00 0.00 0.00 87 1015.6
20260506111529 62 215 0.0 0.0 0.00 0.00 0.00 88 1015.2
20260506111026 62 185 0.0 6.0 0.00 0.00 0.00 88 1015.2
20260506110524 62 209 0.0 7.0 0.00 0.00 0.00 89 1015.2
20260506110021 61 221 0.0 2.0 0.00 0.00 0.00 89 1015.2
20260506105517 61 196 0.0 2.0 0.00 0.00 0.00 89 1015.2
20260506105015 61 218 0.0 2.0 0.00 0.00 0.00 88 1015.6
20260506104512 61 200 0.0 0.0 0.00 0.00 0.00 89 1015.6
20260506104010 61 198 0.0 2.0 0.00 0.00 0.00 88 1015.2
20260506103507 61 215 0.0 3.0 0.00 0.00 0.00 88 1015.2
20260506103004 61 177 0.0 1.0 0.00 0.00 0.00 88 1015.6
20260506102502 61 204 1.0 3.0 0.00 0.00 0.00 88 1015.6
20260506101959 61 207 0.0 7.0 0.00 0.00 0.00 88 1015.6
20260506101455 61 200 0.0 1.0 0.00 0.00 0.00 88 1015.6
20260506100953 61 183 3.0 6.0 0.00 0.00 0.00 88 1015.2
20260506100451 61 211 0.0 6.0 0.00 0.00 0.00 88 1015.2
20260506095949 61 167 0.0 7.0 0.00 0.00 0.00 88 1014.9
20260506095447 61 180 0.0 7.0 0.00 0.00 0.00 88 1015.2
20260506094942 61 216 0.0 0.0 0.00 0.00 0.00 88 1014.9
20260506094441 61 215 0.0 8.0 0.00 0.00 0.00 88 1015.2
20260506093939 61 213 0.0 2.0 0.00 0.00 0.00 88 1015.6
20260506093437 61 202 1.0 7.0 0.00 0.00 0.00 88 1015.2
20260506092934 61 207 0.0 1.0 0.00 0.00 0.00 87 1015.2
20260506092432 61 188 0.0 5.0 0.00 0.00 0.00 87 1015.6
20260506091928 61 171 0.0 0.0 0.00 0.00 0.00 87 1015.6
20260506091427 61 195 0.0 6.0 0.00 0.00 0.00 86 1015.9
20260506090923 61 189 0.0 0.0 0.00 0.00 0.00 86 1015.6
20260506090421 62 183 0.0 0.0 0.00 0.00 0.00 86 1015.6
20260506085918 62 172 0.0 0.0 0.00 0.00 0.00 86 1015.6
20260506085414 62 207 0.0 3.0 0.00 0.00 0.00 86 1015.6
20260506084910 62 194 0.0 0.0 0.00 0.00 0.00 85 1015.6
20260506084408 62 196 0.0 7.0 0.00 0.00 0.00 85 1015.6
20260506083904 62 217 5.0 7.0 0.00 0.00 0.00 85 1015.6
20260506083401 62 164 0.0 6.0 0.00 0.00 0.00 84 1015.6
20260506082858 62 218 0.0 0.0 0.00 0.00 0.00 84 1015.2
20260506082355 62 187 0.0 0.0 0.00 0.00 0.00 84 1015.6
20260506081851 63 197 4.0 6.0 0.00 0.00 0.00 83 1015.6
20260506081349 63 225 0.0 6.0 0.00 0.00 0.00 83 1015.6
20260506080847 63 192 0.0 0.0 0.00 0.00 0.00 82 1015.9
20260506080343 63 213 0.0 1.0 0.00 0.00 0.00 82 1015.6
20260506073327 64 189 4.0 9.0 0.00 0.00 0.00 80 1015.6
20260506072824 64 193 4.0 8.0 0.00 0.00 0.00 80 1015.6
20260506072322 64 204 6.0 8.0 0.00 0.00 0.00 80 1015.9
20260506071819 65 195 5.0 9.0 0.00 0.00 0.00 79 1015.6
20260506071317 65 181 5.0 9.0 0.00 0.00 0.00 79 1015.6
20260506070814 65 168 3.0 9.0 0.00 0.00 0.00 79 1015.6
20260506070311 65 227 8.0 11.0 0.00 0.00 0.00 79 1015.6
20260506062248 65 207 7.0 9.0 0.00 0.00 0.00 80 1016.2
20260506061744 65 201 9.0 10.0 0.00 0.00 0.00 79 1015.9
20260506061241 65 197 5.0 7.0 0.00 0.00 0.00 79 1015.9
20260506060739 65 187 5.0 10.0 0.00 0.00 0.00 79 1015.9
20260506060237 65 175 5.0 11.0 0.00 0.00 0.00 79 1015.9
20260506051208 66 205 9.0 10.0 0.00 0.00 0.00 77 1016.6
20260506050707 66 219 5.0 10.0 0.00 0.00 0.00 76 1016.6
20260506050203 66 152 0.0 7.0 0.00 0.00 0.00 76 1016.6
20260506044654 67 196 5.0 15.0 0.00 0.00 0.00 74 1016.6
20260506044151 67 224 6.0 11.0 0.00 0.00 0.00 74 1016.6
20260506043648 67 187 1.0 14.0 0.00 0.00 0.00 73 1016.6
20260506043146 67 208 7.0 14.0 0.00 0.00 0.00 73 1016.6
20260506042645 68 209 0.0 14.0 0.00 0.00 0.00 72 1016.6
20260506042143 68 234 7.0 13.0 0.00 0.00 0.00 71 1016.9
20260506041641 68 192 6.0 11.0 0.00 0.00 0.00 70 1016.9
20260506041137 68 136 2.0 9.0 0.00 0.00 0.00 70 1016.9
20260506040635 68 175 5.0 9.0 0.00 0.00 0.00 69 1016.6
20260506040132 68 200 6.0 9.0 0.00 0.00 0.00 69 1016.6
20260506035629 68 213 7.0 13.0 0.00 0.00 0.00 69 1016.6
20260506035125 69 219 7.0 10.0 0.00 0.00 0.00 69 1016.9
20260506034623 69 148 5.0 14.0 0.00 0.00 0.00 68 1016.6
20260506034120 69 153 5.0 10.0 0.00 0.00 0.00 68 1016.6
20260506033617 69 223 8.0 10.0 0.00 0.00 0.00 67 1016.6
20260506033114 69 191 5.0 10.0 0.00 0.00 0.00 67 1016.6
20260506032612 69 221 9.0 11.0 0.00 0.00 0.00 67 1016.6
20260506032108 69 137 7.0 13.0 0.00 0.00 0.00 67 1016.6
20260506031605 69 201 11.0 14.0 0.00 0.00 0.00 67 1016.6
20260506031102 69 215 4.0 13.0 0.00 0.00 0.00 66 1016.6
20260506030601 69 206 6.0 7.0 0.00 0.00 0.00 67 1016.9
20260506030057 70 133 3.0 7.0 0.00 0.00 0.00 66 1016.6
20260506025554 70 216 6.0 9.0 0.00 0.00 0.00 65 1016.9
20260506025050 70 209 4.0 11.0 0.00 0.00 0.00 65 1016.6
20260506024547 71 209 8.0 13.0 0.00 0.00 0.00 65 1016.2
20260506024044 71 184 9.0 13.0 0.00 0.00 0.00 64 1016.2
20260506023540 71 205 6.0 14.0 0.00 0.00 0.00 64 1016.6
20260506023038 71 201 6.0 9.0 0.00 0.00 0.00 64 1016.6
20260506022535 71 205 4.0 10.0 0.00 0.00 0.00 64 1016.6
20260506022032 71 187 7.0 8.0 0.00 0.00 0.00 64 1016.6
20260506021530 71 217 2.0 6.0 0.00 0.00 0.00 65 1016.6
20260506021027 71 221 3.0 8.0 0.00 0.00 0.00 64 1016.2
20260506020524 71 187 4.0 7.0 0.00 0.00 0.00 64 1015.9
20260506020021 71 187 3.0 6.0 0.00 0.00 0.00 63 1016.2
20260506015519 71 219 0.0 6.0 0.00 0.00 0.00 64 1016.2
20260506015016 71 181 3.0 6.0 0.00 0.00 0.00 63 1016.2
20260506014513 72 216 4.0 9.0 0.00 0.00 0.00 63 1015.9
20260506014009 72 204 0.0 7.0 0.00 0.00 0.00 63 1015.9
20260506013507 72 197 3.0 7.0 0.00 0.00 0.00 62 1015.9
20260506013003 72 215 0.0 3.0 0.00 0.00 0.00 62 1015.6
20260506012459 72 188 0.0 5.0 0.00 0.00 0.00 61 1015.9
20260506011957 73 219 4.0 7.0 0.00 0.00 0.00 61 1015.9
20260506011454 73 217 0.0 6.0 0.00 0.00 0.00 60 1015.6
20260506010950 73 199 2.0 6.0 0.00 0.00 0.00 59 1015.6
20260506010450 73 194 1.0 6.0 0.00 0.00 0.00 58 1015.6
20260506005945 73 194 2.0 5.0 0.00 0.00 0.00 58 1015.6
20260506005443 73 212 5.0 11.0 0.00 0.00 0.00 58 1015.6
20260506004938 74 202 5.0 8.0 0.00 0.00 0.00 58 1015.6
20260506004436 73 201 7.0 8.0 0.00 0.00 0.00 57 1015.2
20260506003932 74 200 0.0 5.0 0.00 0.00 0.00 58 1015.2
20260506003429 74 199 1.0 8.0 0.00 0.00 0.00 58 1015.6
20260506002925 74 213 5.0 6.0 0.00 0.00 0.00 58 1015.2
20260506002421 74 221 0.0 6.0 0.00 0.00 0.00 59 1015.2
20260506001917 74 204 5.0 6.0 0.00 0.00 0.00 57 1015.2
20260506001414 75 206 6.0 7.0 0.00 0.00 0.00 56 1015.2
20260506000911 75 193 0.0 0.0 0.00 0.00 0.00 56 1015.6
20260506000409 75 194 3.0 5.0 0.00 0.00 0.00 55 1015.2
20260505235905 75 227 4.0 6.0 0.00 0.00 0.00 55 1014.9
20260505235404 75 204 0.0 6.0 0.00 0.00 0.00 55 1015.2
20260505234900 76 207 0.0 6.0 0.00 0.00 0.00 54 1014.9
20260505234358 76 159 6.0 11.0 0.00 0.00 0.00 53 1015.2
20260505233854 76 211 3.0 8.0 0.00 0.00 0.00 54 1015.2
20260505233352 76 153 7.0 11.0 0.00 0.00 0.00 53 1015.2
20260505232849 76 203 4.0 8.0 0.00 0.00 0.00 53 1014.9
20260505232347 77 194 7.0 10.0 0.00 0.00 0.00 53 1014.9
20260505231844 77 211 8.0 9.0 0.00 0.00 0.00 53 1015.2
20260505231341 77 219 3.0 17.0 0.00 0.00 0.00 53 1015.2
20260505230839 78 178 6.0 9.0 0.00 0.00 0.00 52 1014.9
20260505230336 78 207 6.0 11.0 0.00 0.00 0.00 51 1015.2
20260505225833 78 195 10.0 14.0 0.00 0.00 0.00 50 1015.2
20260505225330 78 214 4.0 11.0 0.00 0.00 0.00 51 1014.9
20260505224825 78 219 7.0 14.0 0.00 0.00 0.00 49 1014.9
20260505224323 78 182 4.0 14.0 0.00 0.00 0.00 51 1014.9
20260505223820 78 163 9.0 11.0 0.00 0.00 0.00 50 1015.2
20260505223317 78 207 9.0 14.0 0.00 0.00 0.00 49 1015.2
20260505222813 78 155 5.0 20.0 0.00 0.00 0.00 49 1015.2
20260505222309 78 216 6.0 9.0 0.00 0.00 0.00 50 1015.6
20260505221806 78 201 7.0 10.0 0.00 0.00 0.00 50 1014.9
20260505221303 78 204 8.0 14.0 0.00 0.00 0.00 50 1015.2
20260505220800 78 207 10.0 13.0 0.00 0.00 0.00 50 1014.9
20260505220257 78 139 4.0 13.0 0.00 0.00 0.00 50 1015.2
20260505215755 78 189 7.0 13.0 0.00 0.00 0.00 48 1015.2
20260505215253 78 219 8.0 13.0 0.00 0.00 0.00 47 1015.2
20260505214750 78 168 7.0 13.0 0.00 0.00 0.00 48 1015.2
20260505214248 78 218 11.0 15.0 0.00 0.00 0.00 48 1015.2
20260505213745 78 206 8.0 14.0 0.00 0.00 0.00 47 1015.2
20260505213242 79 198 6.0 15.0 0.00 0.00 0.00 46 1015.2
20260505212737 79 205 10.0 13.0 0.00 0.00 0.00 46 1015.2
20260505212235 79 149 11.0 16.0 0.00 0.00 0.00 45 1015.2
20260505211732 79 196 7.0 15.0 0.00 0.00 0.00 47 1015.2
20260505211229 79 230 10.0 17.0 0.00 0.00 0.00 45 1014.9
20260505210726 79 198 13.0 20.0 0.00 0.00 0.00 47 1015.2
20260505210222 79 199 13.0 18.0 0.00 0.00 0.00 47 1015.2
20260505205720 79 218 12.0 16.0 0.00 0.00 0.00 47 1015.2
20260505205218 79 190 9.0 14.0 0.00 0.00 0.00 47 1015.6
20260505204714 79 161 9.0 15.0 0.00 0.00 0.00 46 1014.9
20260505204212 79 223 10.0 14.0 0.00 0.00 0.00 46 1015.6
20260505203709 78 142 8.0 14.0 0.00 0.00 0.00 48 1015.6
20260505203206 79 224 2.0 14.0 0.00 0.00 0.00 48 1015.2
20260505202702 79 186 9.0 14.0 0.00 0.00 0.00 47 1015.6
20260505202158 79 210 12.0 14.0 0.00 0.00 0.00 46 1015.6
20260505201654 78 200 4.0 9.0 0.00 0.00 0.00 47 1015.6
20260505201153 78 196 11.0 13.0 0.00 0.00 0.00 47 1015.6
20260505200651 78 186 13.0 20.0 0.00 0.00 0.00 47 1015.6
20260505200147 79 198 14.0 21.0 0.00 0.00 0.00 47 1015.6
20260505195643 79 202 3.0 15.0 0.00 0.00 0.00 45 1015.6
20260505195140 79 174 9.0 14.0 0.00 0.00 0.00 45 1015.6
20260505194638 79 207 10.0 13.0 0.00 0.00 0.00 46 1015.9
20260505194134 79 201 8.0 16.0 0.00 0.00 0.00 45 1015.6
20260505193630 79 189 12.0 18.0 0.00 0.00 0.00 45 1015.9
20260505193127 80 191 9.0 20.0 0.00 0.00 0.00 44 1015.9
20260505192626 79 207 7.0 8.0 0.00 0.00 0.00 43 1015.9
20260505192123 79 198 8.0 14.0 0.00 0.00 0.00 42 1016.2
20260505191622 79 209 8.0 13.0 0.00 0.00 0.00 43 1015.9
20260505191119 79 205 8.0 20.0 0.00 0.00 0.00 43 1016.2
20260505190615 79 200 12.0 16.0 0.00 0.00 0.00 43 1016.2
20260505190110 79 205 13.0 14.0 0.00 0.00 0.00 43 1016.2
20260505185607 79 204 5.0 16.0 0.00 0.00 0.00 43 1016.6
20260505185103 79 215 9.0 13.0 0.00 0.00 0.00 43 1016.6
20260505184600 79 211 17.0 18.0 0.00 0.00 0.00 43 1016.6
20260505184057 79 195 5.0 17.0 0.00 0.00 0.00 45 1016.6
20260505183553 79 217 7.0 10.0 0.00 0.00 0.00 44 1016.6
20260505183051 79 180 9.0 14.0 0.00 0.00 0.00 43 1016.9
20260505182547 79 190 7.0 11.0 0.00 0.00 0.00 43 1016.9
20260505182044 79 144 8.0 10.0 0.00 0.00 0.00 43 1017.3
20260505181541 78 218 10.0 16.0 0.00 0.00 0.00 42 1016.9
20260505181038 78 169 5.0 13.0 0.00 0.00 0.00 42 1016.9
20260505180533 79 221 13.0 17.0 0.00 0.00 0.00 40 1016.9
20260505180032 78 182 5.0 18.0 0.00 0.00 0.00 42 1016.9
20260505175532 78 169 9.0 13.0 0.00 0.00 0.00 41 1016.9
20260505175029 78 205 9.0 23.0 0.00 0.00 0.00 41 1017.3
20260505174526 78 230 12.0 20.0 0.00 0.00 0.00 39 1016.9
20260505174022 78 193 7.0 11.0 0.00 0.00 0.00 41 1017.3
20260505173519 78 169 8.0 14.0 0.00 0.00 0.00 41 1017.3
20260505173016 78 211 7.0 15.0 0.00 0.00 0.00 40 1017.3
20260505172514 78 209 8.0 17.0 0.00 0.00 0.00 41 1017.3
20260505172009 78 187 7.0 13.0 0.00 0.00 0.00 42 1016.9
20260505171505 78 202 5.0 11.0 0.00 0.00 0.00 43 1016.9
20260505171002 77 191 5.0 11.0 0.00 0.00 0.00 42 1017.3
20260505170458 77 203 9.0 13.0 0.00 0.00 0.00 42 1017.3
20260505165954 78 218 4.0 10.0 0.00 0.00 0.00 42 1017.6
20260505165450 78 216 7.0 9.0 0.00 0.00 0.00 44 1017.3
20260505164946 77 177 6.0 10.0 0.00 0.00 0.00 44 1017.3
20260505164442 77 212 8.0 9.0 0.00 0.00 0.00 43 1017.6
20260505163940 77 204 8.0 15.0 0.00 0.00 0.00 43 1017.6
20260505163439 77 201 8.0 15.0 0.00 0.00 0.00 44 1017.3
20260505162938 77 207 11.0 13.0 0.00 0.00 0.00 45 1017.6
20260505162433 76 172 5.0 9.0 0.00 0.00 0.00 44 1017.6
20260505161930 76 217 10.0 13.0 0.00 0.00 0.00 46 1017.6
20260505161426 76 217 5.0 8.0 0.00 0.00 0.00 45 1017.9
20260505160924 76 209 7.0 13.0 0.00 0.00 0.00 47 1017.6
20260505160422 76 189 8.0 9.0 0.00 0.00 0.00 49 1017.9
20260505152858 74 218 6.0 10.0 0.00 0.00 0.00 51 1018.3
20260505152350 74 198 6.0 8.0 0.00 0.00 0.00 52 1018.3
20260505151849 74 182 5.0 7.0 0.00 0.00 0.00 54 1018.3
20260505151346 73 191 5.0 8.0 0.00 0.00 0.00 54 1018.3
20260505150844 73 198 8.0 10.0 0.00 0.00 0.00 54 1018.3
20260505150341 73 224 3.0 5.0 0.00 0.00 0.00 58 1018.3
20260505140310 69 146 6.0 10.0 0.00 0.00 0.00 63 1018.3